Location: Ingoldesthorpe
(52.8667°N, 0.5167°E)
Time: 15:28:48
(UTC+00:00)

NOSS 2-1 (C) - Pass Details

Date: 19 May 2025
Orbit: 378 x 1699 km, 63.3° (Epoch: 17 June)

Event Time Altitude Azimuth Distance (km) Brightness Sun altitude
Exits shadow 22:55:10 41° 146° (SE) 612 3.1 -16.0°
Maximum altitude 22:55:25 42° 131° (SE) 597 3.1 -16.0°
Drops below altitude 10° 22:58:17 10° 58° (ENE) 1,412 5.6 -16.1°
Sets 23:00:17 0° 51° (NE) 2,261 6.8 -16.2°
